Location: *
(32.8667°N, 13.1833°E)
Time: 12:11:49
(UTC+00:00)

SeaSat 1 - Pass Details

Date: 18 July 2019
Orbit: 744 x 748 km, 108.0° (Epoch: 20 August)

Event Time Altitude Azimuth Distance (km) Brightness Sun altitude
Rises 21:54:41 0° 27° (NNE) 3,195 6.2 -33.0°
Reaches altitude 10° 21:56:58 10° 31° (NNE) 2,268 5.3 -33.2°
Enters shadow 21:58:42 22° 36° (NE) 1,601 4.4 -33.3°
